Theta_e
318 319 319 320 323 325 325 323 318 317 318 311 311 315 314 318 317 318 318 318 320 320 318 317 317 319 321 321 323 321 322 327 327 327 331 338 337 336 339 338 339 340 342 340 338 338 339 339 338 337 336 336 338 339 339 339 339 339 339 338 338 336 329 325 327 326 324 325 324 322 323 326 327 325 324 329 329 326 327 330 328 330 331 330 330 330 330 330 331 332 331 327 325 326 323 322 323
319 321 321 321 324 326 324 322 317 313 313 308 311 315 314 318 318 318 318 320 322 319 319 318 319 320 320 320 321 321 324 327 329 332 333 336 337 337 338 338 339 341 342 341 339 339 340 339 337 336 335 336 338 339 339 338 339 339 339 339 338 338 333 326 327 327 326 326 327 325 323 326 327 324 324 327 328 325 326 330 329 330 330 329 330 329 329 330 333 333 329 326 327 326 323 322 323
319 323 323 324 325 324 323 321 315 310 309 307 310 315 316 317 317 319 320 321 321 319 320 319 320 320 319 320 320 320 324 327 329 330 329 335 338 337 337 338 340 342 342 342 341 340 340 338 337 335 334 336 337 338 339 338 338 339 339 339 338 338 334 328 328 329 327 328 328 328 327 327 327 322 320 322 323 322 325 329 330 329 329 329 329 328 328 330 331 331 329 329 329 326 323 322 323
319 322 324 326 326 323 323 320 315 310 308 308 309 314 317 317 318 320 321 320 319 319 319 319 320 320 321 322 319 319 322 325 329 329 330 337 338 337 337 338 340 342 342 342 341 341 339 337 337 335 334 335 337 338 338 338 338 339 339 339 338 338 335 330 330 331 328 329 330 329 328 328 327 322 319 320 318 317 324 329 329 329 329 329 329 328 329 330 330 331 331 330 329 325 322 323 323
320 322 322 326 328 323 322 318 317 312 309 311 310 314 318 317 319 320 320 319 317 318 317 320 321 320 322 322 322 323 322 323 328 330 334 338 337 336 336 338 340 342 342 342 341 341 339 336 336 336 335 335 336 337 337 338 338 338 339 338 338 337 336 332 331 332 329 329 330 329 328 325 323 320 319 322 317 315 324 329 329 328 328 328 328 330 331 332 332 332 330 329 327 323 322 323 324
322 324 322 324 325 322 321 315 313 311 312 317 313 314 317 317 319 319 319 318 316 317 316 319 320 319 322 322 325 326 326 326 327 331 336 338 336 336 336 338 340 341 342 342 341 341 339 336 337 337 337 335 335 336 337 338 338 337 338 337 337 338 336 333 332 332 330 329 330 329 328 324 320 317 318 321 318 317 324 328 328 328 328 327 329 332 332 332 332 330 328 327 324 321 323 324 324
323 324 323 322 322 322 320 313 312 312 314 317 316 315 317 317 318 318 318 318 317 317 316 318 318 320 322 322 324 326 328 330 332 334 335 336 335 336 337 338 341 342 342 341 341 342 339 337 337 338 337 336 335 335 336 337 337 336 336 336 336 337 336 334 333 332 330 329 329 329 328 324 320 317 317 320 318 318 323 327 328 328 327 327 329 331 331 331 329 328 326 324 321 320 324 324 323
322 323 324 324 322 322 318 314 314 315 314 316 317 316 317 317 318 318 318 318 317 318 317 317 319 319 320 321 323 324 325 328 330 332 333 335 336 336 337 339 341 342 341 341 342 341 339 338 337 338 337 337 336 335 335 337 336 335 336 336 336 337 336 335 333 332 331 329 330 329 328 325 320 317 317 320 320 320 323 326 327 327 327 327 328 330 330 329 327 326 325 322 321 323 324 323 322
322 323 323 324 321 318 315 314 315 315 316 315 316 316 316 317 317 318 317 317 317 317 318 318 318 318 318 319 322 323 322 326 329 330 333 335 336 337 338 340 340 341 341 341 341 341 339 338 338 337 338 338 337 336 335 335 335 335 335 336 336 337 336 335 333 333 332 331 330 329 327 325 322 318 317 319 321 322 324 326 327 327 326 326 327 328 328 328 326 325 323 322 323 324 323 322 321
321 322 322 323 319 314 312 313 315 316 316 315 315 315 316 316 316 317 316 317 316 316 318 318 317 316 317 319 320 320 321 327 331 332 333 335 336 337 338 341 341 341 341 341 341 341 340 339 338 338 337 338 338 338 337 335 334 334 334 336 336 336 337 335 334 333 333 331 330 329 328 326 323 320 317 317 318 319 322 325 326 326 326 325 326 326 326 326 325 324 322 323 323 323 321 319 319
321 321 322 321 315 311 310 313 315 316 315 315 315 315 316 316 315 316 316 316 316 317 318 317 317 316 316 319 319 317 321 329 334 333 333 335 336 337 338 341 341 341 342 341 341 341 340 339 339 339 338 338 338 339 338 335 334 333 333 335 336 336 336 335 334 334 333 332 330 329 327 325 323 321 318 315 313 314 318 324 325 324 325 325 325 325 324 324 323 323 322 322 320 316 312 313 316
322 320 321 318 314 313 313 314 315 316 316 315 315 315 315 315 315 315 315 315 315 316 317 317 317 316 316 317 318 318 323 331 334 333 333 335 336 336 336 340 341 341 341 341 341 341 341 340 340 339 338 338 338 339 338 336 334 334 332 333 335 335 336 335 335 335 334 332 330 328 327 326 323 321 319 315 313 312 313 320 324 323 323 324 323 323 323 322 322 321 319 315 308 304 303 309 316
323 321 321 318 318 318 315 315 316 317 316 316 315 315 315 315 315 315 315 315 315 316 316 317 316 316 317 317 318 320 326 332 333 332 333 335 335 335 335 338 339 340 341 341 340 340 341 340 339 339 339 338 338 338 338 337 335 334 332 331 334 335 336 335 335 335 334 333 330 329 328 326 323 322 320 317 316 313 310 315 321 323 322 322 322 322 321 320 318 315 309 303 299 299 302 309 314
324 323 322 320 320 319 317 317 316 316 315 317 316 314 315 315 315 315 315 315 315 316 315 315 315 316 316 317 317 318 328 333 331 330 333 334 335 335 335 336 337 338 339 339 339 339 340 340 340 339 339 339 338 339 338 337 336 334 331 330 334 335 335 336 335 335 334 333 331 330 328 326 324 322 321 318 316 314 309 310 316 319 320 320 319 318 316 313 308 304 300 298 299 301 304 308 310
324 322 322 321 318 316 318 319 316 315 315 317 316 314 315 314 314 314 315 315 315 315 314 314 314 315 316 316 318 321 330 331 330 330 332 333 334 335 335 335 335 336 337 337 337 338 340 339 339 338 339 339 339 339 338 337 337 335 331 329 333 335 335 335 335 335 334 333 331 330 329 326 324 323 321 319 316 314 311 308 309 312 312 312 311 308 305 303 300 299 299 299 300 301 303 306 308
322 323 321 319 315 315 317 320 317 315 317 317 315 314 314 314 313 314 314 314 315 315 314 315 314 315 316 317 320 326 330 330 330 330 332 333 334 334 335 334 333 335 336 335 335 337 338 338 338 338 338 338 339 339 339 338 337 336 333 329 332 334 334 335 335 334 334 333 331 330 330 328 325 324 322 320 318 315 312 309 307 305 304 303 301 300 300 300 301 301 302 301 301 302 304 305 307
321 322 319 316 315 315 317 319 317 316 318 316 314 314 315 314 313 313 313 312 314 315 315 316 315 315 317 316 318 325 329 328 329 330 332 333 334 334 334 334 333 334 334 333 333 334 335 336 336 336 336 337 338 338 339 339 337 337 334 330 331 334 334 334 334 334 334 333 332 331 330 329 327 325 324 322 320 316 314 311 308 305 303 302 303 303 304 305 307 307 307 306 305 305 305 306 309
319 320 317 315 316 317 317 318 317 317 318 315 314 315 315 316 314 313 314 313 314 315 315 316 316 315 317 316 316 323 327 328 329 331 332 333 333 334 334 334 333 333 333 333 331 332 332 333 335 335 335 335 336 336 337 338 338 337 336 332 331 333 334 333 334 334 334 333 332 331 330 329 328 326 325 323 320 317 314 312 311 309 308 308 309 310 311 312 313 313 313 312 310 309 309 311 314
319 320 317 316 319 318 318 318 317 317 318 316 315 315 316 316 315 315 314 315 315 315 315 316 315 315 316 316 317 321 325 328 330 331 332 333 333 334 335 334 333 332 332 332 330 330 332 333 334 332 333 335 335 335 335 337 338 337 337 335 332 332 332 332 333 334 333 333 332 332 331 330 329 326 325 323 321 317 315 314 314 313 313 314 314 315 315 315 315 315 315 314 313 312 312 313 314
318 319 317 318 319 317 316 317 316 315 316 317 315 314 315 315 315 315 315 315 316 315 316 316 316 316 317 316 318 321 324 327 329 331 332 333 333 333 334 333 333 332 331 331 329 330 333 334 334 332 334 335 335 335 335 337 338 337 338 337 335 333 332 332 334 334 333 332 332 332 331 331 329 327 326 324 323 319 316 315 316 316 316 316 316 316 315 315 315 314 314 313 312 312 312 312 313
317 316 316 317 317 316 315 315 315 314 315 316 316 314 315 315 315 315 315 315 316 316 315 317 316 316 318 317 319 321 323 326 328 330 331 332 333 332 334 333 333 333 331 330 328 329 332 334 333 332 333 333 333 334 334 336 336 337 338 337 337 336 334 334 334 334 334 333 332 333 332 331 329 327 326 323 322 321 318 317 317 317 317 317 316 316 315 315 314 313 313 313 313 312 312 312 313
316 315 315 315 316 316 314 313 313 312 314 316 315 314 315 314 314 315 315 315 315 316 315 316 316 316 320 319 321 322 322 325 327 328 330 331 332 331 333 333 332 331 329 329 328 328 330 332 331 330 330 331 331 332 334 335 334 335 336 337 337 336 336 335 335 335 334 334 333 333 333 332 329 327 326 323 322 322 320 318 318 318 317 317 317 316 316 314 312 312 313 313 311 310 310 310 311
316 315 314 314 315 316 313 313 312 312 314 316 315 315 315 314 314 315 314 315 316 315 315 316 315 316 320 321 322 322 322 325 326 327 329 331 331 331 332 332 331 329 328 330 330 328 328 329 329 330 330 329 330 331 333 334 334 335 336 337 337 336 336 336 336 335 335 334 333 333 333 332 329 327 327 324 322 322 321 320 320 320 319 319 319 318 315 313 311 311 310 309 307 307 307 306 306
316 315 314 314 314 314 313 312 311 311 314 315 314 314 314 315 315 314 314 315 315 314 315 315 314 314 317 321 323 322 322 324 325 326 327 329 331 331 331 331 330 329 330 330 328 327 327 327 327 328 328 328 328 330 331 333 334 335 337 337 336 335 336 336 336 335 335 335 334 333 333 332 330 328 328 325 323 322 322 322 321 320 320 320 319 317 314 313 311 309 307 305 304 303 303 302 301
316 315 314 314 314 313 311 311 311 312 313 313 313 314 314 315 314 313 314 315 315 315 315 315 314 313 315 318 321 321 322 324 324 325 326 328 330 330 330 330 329 328 329 329 327 326 327 326 326 327 326 326 327 328 330 332 332 333 335 336 336 335 336 336 335 335 334 334 334 334 333 333 331 329 328 327 325 324 323 322 321 321 320 319 318 316 316 314 310 307 305 303 301 301 300 298 297
316 315 314 314 314 312 312 312 312 312 313 313 314 315 315 314 312 314 315 315 316 315 314 314 314 313 314 316 318 321 322 324 325 325 326 326 327 327 327 327 327 326 327 327 326 326 325 324 325 325 324 324 324 325 328 330 331 331 332 333 335 336 336 335 335 334 332 332 333 333 333 333 332 329 328 328 326 324 323 322 322 322 320 320 319 317 316 313 310 308 304 301 299 298 297 296 294
315 315 315 315 314 313 313 313 313 313 313 313 314 315 315 313 313 315 317 315 314 314 314 314 314 314 314 314 316 320 322 323 324 325 325 324 324 324 325 325 325 324 325 324 323 323 323 322 322 322 322 322 322 324 326 328 329 330 330 330 332 334 335 335 334 333 332 332 332 332 332 332 330 329 329 328 326 324 323 323 322 321 321 319 319 319 315 312 311 308 303 300 298 297 295 294 293
315 315 315 314 315 314 313 314 313 314 314 313 314 316 315 314 313 316 317 314 314 315 315 315 314 314 315 315 316 319 322 323 324 324 324 324 323 323 324 324 324 323 322 321 321 321 320 320 320 320 320 321 320 322 325 327 328 329 329 328 329 331 333 334 333 333 332 331 331 331 331 330 330 330 329 328 326 325 324 323 322 321 321 319 319 319 314 311 311 307 301 299 298 296 294 293 293
315 315 316 315 315 315 314 315 314 315 315 313 314 315 316 316 315 317 317 314 315 315 316 316 316 315 316 316 316 318 320 322 323 323 322 323 322 322 323 323 323 322 320 320 320 319 319 318 319 319 318 318 319 320 324 327 327 327 327 326 327 328 330 332 333 333 331 331 330 331 331 330 330 330 329 328 326 325 324 323 322 321 320 319 318 318 316 312 310 305 300 298 296 295 293 292 292
315 316 317 316 315 316 316 316 314 315 314 313 314 313 315 319 318 317 316 314 315 315 316 316 316 316 316 317 317 317 318 320 322 322 321 322 322 322 322 323 322 321 320 319 319 318 318 317 317 318 316 317 319 321 323 324 325 326 324 324 325 325 328 331 333 332 331 330 329 329 330 330 329 329 328 328 327 326 325 322 321 320 319 318 317 317 316 311 307 303 299 296 295 294 293 292 292
317 316 316 317 314 314 317 315 314 316 313 313 315 312 315 319 318 315 314 314 315 315 316 316 317 317 317 317 317 316 317 319 320 320 321 322 322 322 321 322 320 319 319 318 318 318 317 316 315 316 316 317 319 320 321 322 323 323 322 322 323 323 325 328 330 330 329 329 329 328 327 327 327 327 328 328 327 326 324 321 320 319 318 318 316 315 315 310 305 301 297 296 295 293 292 292 292
317 314 313 317 314 314 317 315 314 316 313 313 315 313 316 318 317 314 313 313 314 315 317 317 317 318 317 317 317 317 317 318 319 319 320 321 321 320 320 320 318 317 318 317 317 317 317 315 314 316 316 316 317 318 319 321 322 321 320 322 323 324 326 326 326 326 327 328 328 326 325 326 325 326 327 327 326 325 324 321 319 318 318 317 316 314 313 309 305 300 296 295 295 293 293 293 293
317 314 313 316 313 313 316 314 313 315 314 315 314 314 317 318 317 314 313 313 315 315 316 317 317 317 317 317 317 317 317 317 318 317 318 319 319 318 318 318 317 316 316 316 317 316 316 315 314 315 316 316 316 316 318 320 320 320 321 322 323 325 326 326 326 326 327 327 327 325 325 326 326 326 326 326 325 324 323 322 319 317 317 317 316 313 311 307 304 299 295 295 295 294 293 293 293
315 315 313 315 315 312 313 314 314 314 314 316 316 315 316 317 317 316 314 315 315 316 316 317 317 317 317 317 317 317 317 316 317 317 317 317 317 317 317 317 316 316 315 316 316 315 315 315 314 315 315 315 314 315 318 321 321 321 321 322 323 324 324 324 325 326 326 326 326 326 326 327 326 324 324 324 324 323 322 321 318 316 315 315 314 312 309 305 301 298 296 296 295 294 294 294 293
312 313 311 312 314 312 312 314 314 314 315 315 316 316 316 316 317 317 316 316 315 316 316 316 317 317 317 318 317 317 317 317 317 317 316 315 316 316 316 316 315 315 315 316 316 315 315 314 314 314 314 314 313 315 318 320 320 320 320 320 321 322 322 323 324 324 324 324 326 326 326 326 324 322 322 322 322 322 320 319 318 315 315 315 314 311 308 302 299 298 297 297 296 295 294 293 292
313 315 313 311 312 311 313 315 313 314 315 315 316 315 316 317 316 317 316 317 317 317 317 317 317 317 317 318 317 318 317 317 317 317 316 315 315 316 315 315 315 315 315 315 315 315 314 314 313 313 312 312 313 315 318 318 319 319 319 319 320 321 321 322 323 323 322 323 323 324 325 325 323 322 322 320 320 320 319 318 318 316 315 315 314 311 307 302 299 299 297 296 296 294 293 292 290
314 314 313 313 312 311 315 317 313 314 314 314 316 316 316 316 316 316 316 316 317 317 317 317 317 317 317 318 318 318 318 318 318 318 316 314 314 315 315 314 315 315 315 314 314 314 313 313 312 312 312 313 314 315 316 317 318 317 317 317 319 319 319 320 321 321 321 321 322 323 324 324 323 322 322 320 319 319 318 318 317 316 315 316 314 311 306 302 300 299 297 296 295 294 293 291 290
314 313 313 313 313 313 316 316 313 313 314 314 315 316 316 317 316 316 316 316 316 316 317 317 317 317 318 318 319 318 319 320 318 317 316 314 314 315 315 314 314 315 315 314 313 313 313 312 311 311 313 315 315 315 315 316 317 316 316 317 318 318 318 318 320 320 321 321 322 323 323 323 323 323 322 321 319 318 318 317 317 317 316 315 312 308 304 302 300 299 298 296 295 294 293 292 292
314 315 314 312 314 315 315 315 314 313 313 314 315 315 315 316 316 316 316 316 316 317 317 317 317 317 317 318 319 319 320 320 317 315 315 314 314 315 315 314 314 315 315 314 313 313 312 312 311 311 312 314 315 314 314 315 315 316 316 316 318 318 317 317 319 320 321 322 322 323 323 323 323 322 321 321 319 317 317 317 317 317 316 313 310 306 304 302 301 300 299 297 295 295 294 294 294
315 315 313 312 316 315 311 313 314 314 313 314 316 316 316 317 317 317 318 317 317 318 318 318 318 318 318 318 319 319 319 320 317 315 314 313 314 314 315 314 314 315 314 314 313 312 312 311 311 310 311 314 314 314 314 314 315 315 315 316 317 317 317 318 319 318 319 322 322 322 322 322 321 321 320 320 319 317 316 316 317 316 314 312 311 310 307 303 301 300 298 297 296 295 295 294 295
316 317 314 313 317 314 312 314 315 315 315 315 317 315 315 318 320 320 320 319 319 319 318 318 319 319 320 320 320 320 319 319 318 316 313 313 313 314 315 315 314 314 314 313 312 312 312 311 310 309 311 313 313 314 314 314 315 314 313 313 313 313 313 314 314 313 317 320 320 321 321 321 320 320 319 319 319 318 316 315 316 317 314 311 312 313 308 304 302 300 299 298 297 296 295 294 296
313 318 317 314 316 316 315 318 316 313 313 316 317 313 311 316 320 321 320 318 318 319 319 319 319 320 320 320 320 320 319 318 318 316 314 313 313 314 315 314 314 314 314 313 312 312 311 311 310 309 310 311 311 313 314 314 315 314 313 311 310 309 308 310 313 314 317 319 319 320 319 320 320 319 318 318 318 318 317 316 316 317 315 311 310 310 307 303 302 300 300 299 297 297 296 295 295
311 317 318 316 317 317 316 318 316 311 312 317 318 313 312 314 315 317 319 318 317 318 319 319 319 319 320 320 319 319 318 317 317 316 315 314 313 314 315 314 314 314 314 313 312 312 311 310 309 309 310 310 310 312 314 313 313 313 314 314 314 313 313 314 316 316 317 317 318 319 318 318 317 317 316 316 317 317 317 316 316 316 315 311 309 308 306 303 302 300 300 299 298 298 297 295 295
314 317 318 317 317 317 318 318 315 314 316 318 318 317 314 313 314 318 318 317 317 317 317 318 318 319 320 320 319 319 318 317 316 316 314 314 313 314 314 314 314 314 313 312 311 311 310 310 309 308 309 309 310 313 313 313 313 312 313 314 314 314 316 317 316 315 314 315 317 317 315 314 314 314 313 313 314 313 313 314 314 314 313 311 308 307 305 303 302 301 300 300 299 298 297 296 296
317 317 317 318 318 319 319 318 316 318 318 316 318 319 314 312 315 319 318 316 317 317 316 317 317 321 320 319 319 317 316 315 315 314 314 313 313 313 314 314 314 313 313 312 311 310 310 309 308 307 308 309 310 312 313 312 311 312 312 312 311 311 312 313 313 312 312 314 315 312 309 309 310 310 308 308 308 307 308 309 310 311 311 310 308 306 305 303 302 301 300 300 299 298 298 297 297
316 316 317 319 319 319 319 318 316 317 317 315 318 317 312 310 312 317 317 315 316 317 316 317 320 321 320 319 318 315 313 313 313 313 313 313 313 313 313 314 313 313 312 312 311 310 309 309 308 307 308 309 310 311 312 311 310 311 312 311 310 309 309 309 308 308 308 311 311 307 306 306 306 306 305 304 303 303 304 304 305 308 308 308 307 306 305 303 303 302 300 299 299 298 297 297 296
317 318 319 319 319 319 318 317 316 315 315 316 318 316 311 309 312 317 317 315 317 317 316 318 320 321 320 318 317 314 312 312 311 311 312 312 312 312 313 313 313 313 312 312 311 309 309 309 308 307 307 308 309 310 311 310 310 310 311 310 309 308 308 307 306 305 307 309 308 305 305 304 303 303 302 301 301 302 302 301 302 304 305 306 306 305 304 303 302 301 300 299 299 298 297 296 295
319 320 318 316 317 318 317 317 318 315 314 316 316 318 316 311 312 317 317 316 318 318 317 318 319 321 321 318 315 314 312 311 310 310 310 311 311 312 312 313 313 313 312 311 310 309 309 308 307 306 306 307 308 309 310 310 310 309 309 307 307 307 307 308 309 309 310 310 306 303 302 301 300 300 300 299 301 301 300 300 302 303 304 304 304 304 303 302 302 301 300 299 299 299 297 294 293
319 318 315 314 313 315 316 318 319 316 314 315 314 317 318 314 313 317 317 317 317 317 318 318 319 319 320 319 317 314 312 311 310 310 310 310 310 311 312 313 313 312 312 311 310 309 308 307 307 306 305 306 308 308 309 310 310 308 307 306 306 306 306 307 308 311 313 309 303 301 301 300 299 298 298 299 300 299 299 300 301 302 303 304 303 303 302 302 301 301 300 300 299 297 294 292 291
317 315 315 314 312 313 316 316 316 315 314 314 314 316 317 314 314 317 317 317 317 318 318 319 320 320 320 320 318 315 313 312 311 311 310 310 311 311 312 313 313 312 312 311 310 309 308 306 306 305 305 305 306 306 308 309 308 306 307 306 306 306 306 307 306 308 310 307 303 301 301 302 303 299 298 299 298 298 299 301 302 302 303 303 303 303 302 302 301 301 300 299 297 293 291 290 290
316 316 316 314 312 312 314 314 313 314 314 313 313 315 315 314 314 317 317 317 317 317 317 318 320 320 320 320 318 316 314 312 312 311 311 311 311 311 312 313 313 313 312 311 310 309 308 306 305 305 305 305 305 305 306 307 306 306 307 306 307 306 306 307 305 304 305 304 302 300 299 302 302 299 298 298 297 297 299 301 302 302 303 303 302 302 302 301 301 300 298 296 292 290 290 290 289
316 318 318 317 315 313 312 313 313 313 314 314 315 315 315 315 315 316 316 316 315 316 317 317 317 318 318 319 319 317 315 313 312 312 311 311 311 311 312 312 313 313 311 311 310 309 308 306 304 304 304 305 305 304 305 305 305 306 306 305 307 306 305 306 304 301 301 301 301 300 299 299 298 297 299 298 296 296 299 300 302 302 302 302 302 302 301 300 298 296 293 291 290 290 289 289 288
316 318 317 317 317 315 313 314 313 313 313 314 314 314 314 313 315 316 316 315 315 316 317 316 316 318 318 320 321 320 317 315 313 313 312 311 311 311 311 312 312 312 311 311 310 309 308 306 304 303 303 304 304 303 304 303 304 304 303 303 305 305 304 306 304 301 300 300 299 299 299 297 296 296 298 297 294 295 297 299 300 301 301 301 301 299 297 295 293 291 290 290 289 289 288 288 287
317 317 316 316 316 315 312 313 314 315 315 314 313 313 313 311 314 318 317 316 316 316 316 316 317 318 319 322 323 322 321 317 313 313 312 311 311 311 311 312 312 312 311 310 309 309 308 306 305 303 303 303 303 303 304 303 304 304 303 303 304 304 304 306 304 300 299 298 298 298 298 297 295 295 296 295 293 293 294 295 296 297 297 296 295 293 291 290 290 290 290 289 289 288 287 287 287
316 316 316 315 316 315 313 313 314 315 316 316 314 313 312 312 313 315 316 316 316 316 316 316 316 317 319 321 321 323 321 316 313 313 312 312 311 311 311 312 312 312 311 310 309 308 308 306 305 303 303 303 303 303 303 303 304 305 304 304 305 304 304 305 302 299 297 297 298 298 297 296 296 295 294 294 292 292 292 292 292 292 292 291 290 290 290 290 289 289 289 288 288 287 287 287 286
314 315 316 315 316 315 314 314 313 313 315 316 315 313 312 313 314 314 315 315 315 316 316 317 316 317 319 319 321 325 322 316 314 313 312 311 311 310 310 311 312 311 311 310 309 308 308 306 305 304 303 303 303 302 302 302 303 305 304 304 305 304 303 303 301 298 297 297 298 298 297 296 296 295 293 293 292 291 291 290 290 290 290 289 289 289 289 289 289 289 288 288 287 287 286 286 286
313 313 315 315 315 314 315 316 314 314 315 314 315 314 313 314 315 315 316 316 316 316 316 317 319 318 318 321 324 325 321 316 315 313 311 311 310 310 309 310 311 311 310 310 309 308 308 305 304 304 303 302 302 302 302 302 303 305 304 303 303 303 303 303 301 298 297 297 296 297 297 296 296 294 292 292 291 291 290 290 290 289 289 289 289 289 289 289 289 288 288 287 287 286 286 286 286
315 313 314 315 315 314 316 317 316 315 315 314 315 316 314 314 316 315 315 315 315 317 317 317 319 319 321 325 324 321 319 317 315 313 311 310 310 309 308 309 310 310 310 309 309 308 307 306 304 303 303 303 301 301 302 303 305 305 303 302 303 303 303 302 300 298 298 297 295 296 297 296 294 293 291 291 291 291 290 290 290 289 289 289 289 289 289 288 288 288 288 287 286 286 285 285 285
Wind_Speed
5 4 4 5 5 6 6 5 2 1 1 4 4 2 4 4 4 5 6 5 4 4 3 3 3 2 2 4 6 5 6 7 7 4 4 7 11 12 10 10 11 12 12 10 10 9 9 11 12 11 10 9 8 8 9 10 11 11 12 13 14 14 13 13 14 14 14 15 15 15 16 16 15 15 16 18 17 17 19 19 19 19 19 18 18 18 18 18 18 17 18 19 19 20 20 22 22
4 4 4 5 5 6 1 2 2 3 3 4 3 2 6 4 4 5 5 4 5 6 4 4 4 2 3 4 5 3 5 8 7 7 8 13 15 11 9 10 12 14 13 11 10 10 9 10 11 11 10 10 9 8 9 9 10 11 11 12 13 13 13 13 13 13 13 14 14 15 16 16 15 15 16 17 17 17 19 19 19 19 18 18 18 18 18 19 18 18 19 19 18 19 20 21 22
3 4 4 4 5 5 2 2 3 2 3 4 4 4 6 5 5 6 7 7 8 7 5 4 3 2 2 3 2 3 4 7 8 8 8 12 12 10 9 10 12 13 13 12 11 11 10 10 11 11 10 10 9 9 8 9 10 11 11 12 11 12 13 12 12 12 13 13 13 15 16 16 15 15 15 16 16 17 19 19 19 18 18 18 18 18 18 18 18 18 18 18 18 18 19 21 22
2 4 5 5 4 4 3 3 2 2 2 4 4 6 5 4 7 8 9 9 8 5 5 3 3 2 4 2 2 2 4 6 7 6 7 8 8 10 9 9 12 12 13 12 12 12 12 12 11 11 11 9 9 8 8 9 10 10 11 11 10 11 12 12 12 12 12 12 13 14 15 16 15 15 15 15 16 17 19 19 18 18 18 18 18 18 18 17 17 18 18 18 18 18 19 20 20
1 4 6 6 4 1 2 1 2 2 3 3 4 7 5 6 9 9 9 8 6 3 2 1 2 3 1 3 4 2 4 5 7 6 7 9 8 9 8 9 11 11 12 12 12 12 13 13 12 12 11 10 9 9 9 9 9 10 10 10 10 11 12 12 12 12 12 12 12 14 15 16 15 15 15 15 16 17 19 18 18 18 18 18 18 18 17 17 17 18 18 17 17 18 18 19 19
2 4 5 5 2 1 3 1 0 3 5 4 4 8 6 8 9 10 9 7 4 1 1 2 1 2 2 3 3 4 4 2 5 5 6 8 7 6 7 9 10 11 12 11 11 11 13 14 13 12 11 10 9 9 9 9 9 10 10 9 10 10 11 11 11 11 11 11 12 13 15 16 15 15 15 15 16 17 18 18 18 18 18 18 18 17 16 17 17 16 16 16 16 16 17 17 16
4 3 3 4 2 1 3 2 2 4 4 5 5 8 7 8 9 10 9 6 4 2 2 1 2 2 3 4 2 5 6 4 3 5 6 6 7 6 7 9 10 11 11 10 10 10 13 14 13 13 12 11 9 9 10 9 9 9 9 9 9 9 11 11 11 10 10 10 11 13 15 15 15 15 15 16 16 17 18 18 18 18 18 18 17 15 15 16 16 16 15 15 14 14 15 15 15
4 2 1 3 2 1 2 4 3 3 4 3 5 6 8 9 8 9 8 5 4 4 4 3 3 3 3 3 2 5 5 6 5 5 6 6 6 6 7 9 10 10 9 10 8 9 13 13 12 12 12 12 10 8 9 9 8 8 8 8 8 8 10 11 10 10 10 10 11 12 14 14 15 15 15 16 16 17 17 18 18 18 18 17 16 14 15 15 15 16 14 13 13 14 14 14 14
4 3 1 3 2 1 1 3 3 3 5 5 4 5 7 8 7 7 7 4 3 4 3 4 3 2 4 5 3 5 4 5 4 4 6 6 5 6 7 7 9 9 9 9 8 9 12 12 12 11 11 11 10 8 7 8 7 6 8 8 8 8 9 10 10 10 10 9 10 12 13 13 14 14 15 15 16 16 16 17 17 17 17 16 15 15 15 15 14 14 13 13 13 13 13 13 14
3 2 2 3 2 2 2 3 3 4 5 4 5 6 6 7 6 5 6 5 4 4 4 3 2 1 3 5 5 4 5 6 5 5 6 6 5 6 6 5 7 8 9 9 9 10 10 11 12 11 10 10 10 9 8 7 7 6 7 8 8 7 8 9 10 10 9 9 10 11 12 12 13 13 13 14 15 16 16 16 16 17 17 16 16 16 16 14 14 14 13 12 12 11 11 13 14
3 2 2 3 2 2 2 3 3 4 6 4 5 7 6 7 6 5 4 4 4 3 5 3 3 2 3 3 4 4 6 6 5 6 5 5 5 5 5 4 5 6 8 9 9 10 8 9 12 11 10 10 10 9 9 8 7 7 8 9 8 7 8 10 10 10 9 9 10 10 11 12 12 13 13 13 14 15 16 16 16 16 16 17 17 16 16 15 14 13 12 12 11 12 13 15 16
3 4 3 4 2 1 2 3 4 5 6 6 6 7 5 7 6 6 6 4 5 4 5 6 1 0 4 3 4 6 7 6 6 6 4 5 6 5 5 5 5 5 7 9 9 9 7 8 11 10 10 11 10 10 9 8 8 8 8 9 9 7 8 10 10 10 10 9 10 10 10 11 12 12 12 12 13 14 16 17 17 16 16 17 16 15 15 15 14 13 12 13 14 15 17 18 19
3 3 5 3 1 1 2 2 4 4 5 6 7 8 6 8 7 6 6 5 6 6 5 4 1 2 3 4 4 6 8 8 7 6 5 5 5 5 6 7 5 5 6 7 8 8 8 8 9 8 10 11 11 10 10 9 9 9 9 9 9 8 8 10 10 10 10 10 10 10 10 11 12 12 12 12 12 13 15 17 18 17 17 17 16 15 15 14 13 13 14 16 18 20 20 21 22
2 1 4 1 1 1 1 2 3 3 4 7 7 9 8 6 4 2 4 6 6 3 3 3 1 3 2 4 4 5 8 10 8 6 6 5 4 5 7 8 4 4 6 6 6 7 8 8 8 7 8 11 11 10 10 9 9 8 8 9 9 8 8 9 10 10 10 10 9 9 10 11 11 11 11 11 11 12 14 16 17 18 17 17 16 15 15 14 14 16 18 19 20 21 22 22 23
2 0 3 1 2 2 2 0 2 3 3 10 8 10 9 3 1 2 3 3 3 5 3 1 1 1 1 1 3 5 9 11 8 7 7 6 5 5 6 7 5 5 7 6 6 6 7 8 9 8 8 9 10 9 9 9 9 8 8 10 9 9 8 9 10 10 10 10 9 10 11 11 12 11 11 11 11 12 13 14 15 16 16 15 15 15 14 15 17 18 19 20 20 21 22 22 23
2 1 3 3 3 3 3 2 2 3 4 10 8 10 10 5 2 3 1 3 2 4 1 2 2 1 4 3 6 9 11 11 9 8 8 7 5 4 5 7 5 5 6 6 6 6 9 9 8 9 8 7 8 8 9 9 9 9 8 10 11 9 9 9 10 10 10 10 10 9 8 8 9 10 11 11 11 11 12 13 14 14 14 15 15 16 17 18 19 19 20 20 20 20 20 21 21
2 2 4 3 4 3 4 5 3 1 5 9 9 10 9 7 4 2 2 2 2 4 3 2 2 1 4 6 8 9 12 11 10 10 10 9 7 5 6 7 6 5 6 5 6 8 9 8 8 9 7 5 6 7 9 9 10 10 9 11 12 11 9 9 10 11 11 10 10 8 7 7 8 9 10 10 10 11 12 12 14 15 16 17 18 19 20 21 21 21 21 20 20 20 19 19 19
2 3 4 3 3 2 2 4 3 2 4 9 10 10 9 6 7 4 3 5 4 3 5 4 2 2 5 8 8 10 11 11 11 12 12 11 10 8 8 9 9 8 8 7 7 8 8 9 9 8 6 6 6 7 9 9 10 12 11 11 12 12 11 10 10 11 11 11 11 9 9 10 10 11 10 10 11 11 12 13 14 16 18 19 20 21 21 21 21 21 21 20 20 20 20 20 19
3 3 5 2 2 3 3 2 4 3 1 9 10 9 7 4 6 6 5 8 8 7 7 7 7 6 8 8 9 11 12 12 13 13 13 13 13 12 11 11 11 10 10 9 7 9 9 9 10 8 8 9 6 6 9 10 10 12 12 11 12 13 12 11 12 13 12 12 12 11 11 11 12 12 10 11 12 12 13 14 15 17 18 19 20 21 20 20 20 20 20 20 19 19 19 18 18
1 2 4 1 5 5 5 4 6 5 3 7 10 7 5 2 4 6 6 6 7 9 7 8 9 10 10 10 11 12 12 13 14 14 14 13 13 13 13 13 13 11 11 9 8 10 11 9 10 9 10 11 8 6 8 9 10 11 12 13 13 13 13 13 13 13 14 14 13 12 12 12 13 13 11 11 13 13 14 15 15 17 18 18 19 20 20 20 19 19 19 18 17 17 17 17 18
1 1 2 3 3 3 5 4 6 5 3 3 8 7 6 4 3 5 6 6 6 8 8 8 7 7 12 13 12 14 14 14 15 15 15 14 14 12 13 13 12 11 12 10 7 11 13 11 11 9 10 12 9 8 7 9 11 11 13 14 14 14 14 14 13 13 14 15 14 12 12 13 14 14 12 13 15 14 15 16 17 18 19 19 19 20 18 16 15 16 16 16 16 16 18 18 19
1 1 3 4 2 2 4 3 4 4 2 2 7 7 6 5 3 6 8 8 3 0 1 2 1 1 10 13 13 14 14 14 15 16 16 16 15 13 12 13 10 8 11 12 8 9 12 13 12 9 8 9 10 10 8 9 12 14 15 14 14 15 15 14 13 13 14 15 15 13 13 14 15 16 14 15 17 16 17 17 17 18 19 18 16 15 13 12 13 15 16 16 17 17 18 20 20
1 2 4 3 4 3 4 3 3 3 1 4 4 4 4 4 6 6 9 12 2 6 6 6 6 5 7 12 13 13 13 14 16 17 17 16 16 15 13 12 11 9 10 12 11 9 11 13 13 13 11 8 10 11 9 9 10 13 16 16 14 15 15 15 14 13 13 14 15 15 14 15 17 18 17 17 18 18 18 16 15 16 16 15 12 11 12 14 16 17 17 18 19 20 20 22 23
3 2 5 3 4 4 3 3 2 2 1 1 1 1 3 7 6 2 7 14 7 3 6 6 6 5 5 9 11 12 13 14 15 16 16 15 16 15 13 11 11 10 11 12 11 10 12 13 13 14 13 10 10 10 10 10 9 10 15 17 15 14 14 15 15 14 13 14 14 15 16 17 18 21 20 20 20 18 17 17 17 16 14 14 12 14 16 16 18 19 20 21 21 22 23 25 26
2 3 6 3 4 5 4 3 2 1 1 2 1 3 4 3 2 3 10 13 9 4 6 4 4 5 5 8 10 10 11 13 14 14 14 13 13 14 12 11 11 10 12 12 11 10 11 13 14 14 12 11 11 10 11 12 12 10 11 15 16 17 16 14 14 13 13 14 14 15 17 19 21 23 23 22 22 21 19 19 18 16 16 17 16 17 17 18 20 21 22 23 24 25 26 27 28
2 5 6 5 5 5 4 4 3 2 1 1 3 5 3 1 3 8 13 8 3 4 4 4 4 5 6 7 9 10 10 12 13 14 13 11 10 13 12 12 11 11 12 12 11 11 10 12 16 15 12 11 11 11 11 13 15 12 9 12 15 19 20 17 14 13 12 12 14 17 17 18 21 24 23 22 24 24 23 22 20 19 19 20 19 18 19 20 21 21 22 24 25 27 27 28 28
5 7 7 6 6 5 3 3 4 2 2 1 5 5 3 3 2 7 4 2 4 4 5 5 5 7 8 8 8 9 10 12 13 13 13 12 11 13 13 13 13 11 11 11 10 10 11 13 16 14 13 13 14 13 11 13 15 13 11 10 12 16 19 19 16 15 13 10 13 18 18 18 19 21 22 22 25 27 26 24 24 23 21 22 21 19 20 22 21 22 24 26 26 28 28 28 28
5 7 7 6 4 5 3 3 4 2 2 1 5 6 4 5 6 10 3 6 4 4 6 6 6 7 8 8 7 7 9 10 12 13 14 15 13 14 14 14 14 12 11 11 10 9 9 11 12 11 11 12 16 16 12 12 14 15 16 11 10 15 16 17 18 17 15 12 13 17 19 19 17 19 23 24 26 27 26 25 25 23 23 23 22 20 21 22 22 23 26 26 27 28 29 28 28
5 4 5 7 4 4 5 3 3 2 1 1 3 7 9 10 12 11 6 6 4 4 6 6 7 7 7 8 7 7 8 9 11 13 14 14 13 14 15 14 14 13 12 11 11 11 10 9 9 9 12 12 13 14 13 12 12 13 17 13 9 14 16 17 19 18 15 13 14 16 19 20 17 19 24 25 26 26 25 25 25 24 24 24 23 21 21 22 23 25 27 27 27 29 29 28 27
5 3 2 5 5 5 6 4 2 3 1 1 3 5 5 10 13 6 7 6 4 5 7 6 7 7 7 7 7 7 9 11 12 13 13 13 13 13 14 14 14 13 11 11 12 12 11 12 11 10 13 12 9 11 13 12 12 11 12 13 11 12 16 17 19 19 15 14 14 14 17 19 17 19 24 26 26 26 26 26 26 25 26 25 24 23 22 24 25 27 28 28 29 29 28 27 26
4 3 2 3 4 3 6 4 4 5 2 2 4 5 5 3 6 7 5 5 5 6 8 7 7 7 7 7 7 8 9 11 13 13 13 13 12 13 13 13 14 13 11 11 12 11 11 13 12 9 10 9 7 10 15 16 15 13 10 12 14 13 16 19 20 19 18 17 17 16 17 17 17 18 23 26 27 28 28 28 27 26 26 25 25 24 24 26 27 28 30 30 30 28 27 26 24
3 3 3 4 4 3 6 3 3 2 2 5 6 4 7 4 5 6 3 5 6 8 8 7 8 8 8 7 7 8 8 11 13 13 14 14 13 12 13 14 14 14 12 11 12 11 11 12 11 8 7 8 8 10 16 18 15 12 10 12 14 15 18 20 20 20 18 17 18 19 19 19 19 18 21 25 27 28 28 28 28 28 27 26 26 26 26 27 28 29 29 29 30 28 25 23 20
4 4 3 4 5 3 5 3 1 1 2 7 9 5 5 2 4 6 4 5 6 6 7 8 8 8 8 7 7 7 7 9 11 14 15 15 14 14 14 14 14 14 13 12 12 12 11 10 10 9 8 8 9 11 17 18 15 13 13 14 14 15 18 19 19 18 17 17 18 19 19 20 20 18 19 23 26 27 28 29 30 30 30 29 28 28 29 29 29 29 28 26 27 26 22 20 19
5 5 3 3 4 3 2 3 2 2 3 6 9 9 10 8 4 3 7 8 7 7 8 9 9 9 8 8 8 8 8 9 10 14 17 17 15 15 14 14 14 13 13 12 12 12 11 10 9 8 10 9 9 13 17 18 17 16 16 14 13 13 15 16 18 18 17 18 19 20 20 19 19 19 20 22 24 25 26 28 31 31 31 31 30 30 30 29 27 27 26 22 23 23 20 19 19
3 5 4 3 4 5 3 2 3 3 5 6 8 10 13 14 12 11 9 10 10 10 11 10 11 11 10 9 9 9 9 10 10 13 18 18 17 17 15 14 15 13 13 13 12 12 11 10 9 9 10 9 10 14 17 18 18 18 17 16 14 13 13 14 16 17 17 18 19 20 20 19 20 21 21 22 23 24 25 27 30 31 31 32 32 32 31 29 25 24 23 20 20 19 19 21 23
2 1 3 3 2 4 1 4 3 1 4 7 10 12 14 14 13 13 12 10 11 12 11 11 10 11 10 10 9 9 10 10 10 13 17 19 17 17 16 15 15 14 13 13 13 12 12 11 10 10 11 12 12 15 17 18 18 18 18 17 16 14 15 16 16 16 16 17 18 19 19 19 21 22 21 23 24 24 26 28 30 31 32 32 32 33 32 29 25 22 22 21 21 20 21 24 26
2 2 3 3 3 2 4 6 3 1 4 8 9 11 15 15 13 13 13 12 13 13 13 12 12 11 10 11 11 10 10 8 8 12 15 17 17 17 16 15 15 14 14 14 14 14 13 12 12 12 14 16 16 15 17 18 18 19 19 18 17 17 18 19 19 18 18 19 19 19 21 21 22 22 22 24 25 25 27 30 31 32 32 31 32 33 32 29 26 25 25 23 24 25 23 24 26
2 3 3 3 4 2 4 5 2 1 2 7 8 11 15 16 14 13 13 14 15 16 15 15 15 13 10 12 13 11 8 6 9 11 13 15 16 17 17 15 16 16 16 16 15 15 14 14 14 14 16 18 17 16 17 18 19 19 19 19 18 19 20 20 21 21 21 21 21 22 23 24 23 22 24 27 27 27 30 31 32 32 31 31 32 31 30 28 27 28 29 25 24 24 23 23 23
2 3 2 3 2 1 3 5 3 2 2 6 8 10 14 17 16 16 17 16 15 15 15 15 15 14 13 12 11 10 9 8 9 11 13 15 16 18 17 16 17 17 16 17 16 15 15 15 15 15 17 19 18 18 18 18 20 20 19 19 20 21 20 22 23 23 22 22 24 24 25 25 24 24 26 28 28 28 30 31 31 31 31 32 32 30 29 29 29 29 30 27 24 21 20 21 19
4 3 3 3 0 1 1 2 2 4 3 6 10 9 12 15 15 16 17 14 12 12 14 15 14 14 14 12 9 9 9 9 10 11 12 15 16 18 18 17 17 17 17 17 17 16 15 16 16 16 18 20 19 20 20 20 21 21 21 20 22 22 21 23 24 23 24 24 25 25 25 25 24 24 26 29 29 28 29 31 30 31 32 33 33 31 31 31 31 30 29 28 27 24 20 20 19
5 5 5 4 1 1 2 2 3 4 3 3 8 9 8 9 10 9 6 5 7 9 11 13 14 13 12 10 8 8 9 8 9 11 12 14 16 18 18 17 17 17 17 17 17 16 15 15 16 16 20 21 20 21 21 21 22 22 21 20 21 20 20 23 23 22 24 25 24 25 26 25 24 24 26 28 28 28 30 32 32 32 33 34 33 32 32 32 32 31 28 29 29 27 24 23 20
5 6 7 7 3 2 2 5 5 5 3 1 4 7 4 2 4 5 3 3 5 6 9 12 12 11 10 9 8 8 9 9 9 10 11 13 16 17 18 18 17 17 17 16 17 16 14 15 15 17 21 21 21 22 22 23 23 23 23 22 21 20 20 22 22 23 25 25 25 26 26 26 24 24 25 27 28 29 31 32 32 32 33 34 32 32 33 33 32 30 30 30 27 24 25 24 19
5 2 3 5 2 2 3 4 3 4 4 0 1 5 6 4 7 11 8 7 7 6 9 12 11 8 7 7 6 6 7 7 8 8 10 12 14 16 17 18 18 17 16 16 16 16 15 15 15 18 21 22 22 23 23 24 25 24 24 24 24 23 24 23 23 24 25 25 26 26 26 25 24 24 25 26 28 29 30 32 32 32 33 33 31 32 33 33 32 30 29 28 23 21 23 23 20
2 2 3 2 3 2 2 3 3 4 6 3 4 4 7 8 6 9 11 9 7 8 11 12 10 5 4 4 4 4 4 4 6 7 8 10 13 15 16 17 17 16 16 16 15 15 15 16 17 18 20 22 23 23 23 25 26 26 25 25 25 25 25 24 24 24 25 25 26 26 25 24 24 25 26 27 28 29 30 31 31 31 33 32 31 32 33 33 33 30 27 24 21 21 21 19 20
1 2 2 3 2 1 1 2 4 3 6 5 4 5 6 8 2 3 8 9 7 10 13 12 6 1 3 2 2 3 2 2 4 5 7 8 11 14 15 16 16 16 16 16 16 15 15 16 18 19 20 21 23 24 24 25 26 27 27 26 25 23 22 23 25 25 25 26 26 25 24 24 24 25 26 27 27 28 28 29 30 31 32 33 32 33 33 33 33 32 29 24 20 19 16 15 18
3 4 4 6 3 2 1 3 3 3 6 6 5 7 4 9 4 5 6 7 8 10 10 6 2 4 3 2 3 3 3 2 2 4 5 8 10 12 13 15 16 16 16 16 15 15 16 17 18 20 22 23 23 24 25 26 27 27 27 26 23 21 21 23 25 25 25 26 25 25 24 24 25 26 26 27 27 27 27 28 29 31 32 33 34 35 34 34 33 32 30 26 21 18 16 15 15
7 7 5 4 3 1 1 2 1 3 6 4 3 7 4 7 4 7 6 6 8 7 6 4 3 4 4 3 4 3 3 3 3 4 5 7 9 11 13 14 15 16 15 16 16 15 17 19 20 21 24 24 24 25 26 28 29 28 28 26 23 23 24 25 26 26 26 26 26 26 26 26 26 27 27 27 26 26 26 28 29 31 32 33 34 34 34 33 33 32 30 26 22 20 18 17 16
4 4 4 2 2 2 3 3 2 5 6 0 2 1 4 7 4 5 4 2 3 3 3 3 2 3 3 4 4 4 4 4 4 4 5 7 8 10 13 14 16 17 16 17 17 16 18 20 20 21 23 25 25 25 26 29 30 29 28 25 23 24 27 28 29 30 30 29 28 28 28 27 27 27 27 27 27 26 27 29 30 31 32 33 33 32 33 33 32 31 29 25 23 20 18 18 18
3 4 5 4 4 3 4 5 4 5 3 2 2 2 4 10 8 3 4 4 4 3 1 1 1 1 2 4 5 5 4 5 5 5 6 7 8 10 13 15 16 17 17 18 17 17 18 20 21 22 24 25 26 26 27 29 30 29 28 25 25 26 27 29 29 30 33 32 30 30 30 30 29 28 28 28 27 28 28 29 31 31 32 32 32 32 32 32 30 29 27 24 22 19 18 18 18
7 7 7 6 5 5 6 6 3 4 1 2 1 1 5 10 7 7 11 10 7 4 3 4 4 4 3 4 6 5 6 6 5 6 6 7 8 11 13 15 16 17 17 17 17 17 18 19 21 22 24 25 25 26 27 28 29 29 29 28 28 28 28 29 29 29 32 32 30 32 32 32 32 30 29 29 28 29 29 30 31 31 32 32 31 31 30 29 28 27 25 22 20 19 19 19 19
9 7 6 6 6 6 6 4 3 3 1 1 1 2 5 4 2 1 3 1 1 2 4 5 5 5 3 3 5 6 6 6 6 6 7 7 10 12 13 15 16 17 17 18 17 18 18 19 20 22 25 26 26 26 27 28 29 29 30 30 30 29 29 29 28 27 29 28 28 31 31 32 33 31 30 30 29 30 30 30 31 31 31 31 30 29 29 28 27 25 23 22 21 21 21 21 21
6 4 4 6 5 4 3 1 1 2 2 2 4 4 6 4 7 8 6 4 5 5 5 6 6 7 6 6 6 7 7 7 7 6 7 8 11 13 14 15 16 16 17 18 18 19 19 19 19 21 24 27 28 28 28 28 30 30 30 31 31 30 28 28 27 26 26 26 25 29 31 31 31 31 31 31 30 30 30 30 31 31 30 30 29 28 28 27 25 24 23 23 22 22 22 22 22
4 5 5 2 2 2 2 1 2 2 5 5 5 7 8 7 12 12 11 12 11 9 7 7 7 8 8 7 7 6 7 7 7 7 7 9 11 13 14 15 16 17 18 19 18 19 20 19 19 20 22 25 28 29 28 29 30 30 29 30 31 30 28 29 29 27 26 24 23 27 30 30 31 32 32 32 31 31 30 30 30 30 29 29 28 27 27 26 25 24 23 23 23 23 23 23 22
2 4 4 3 2 1 3 4 2 3 8 6 6 10 9 6 7 2 5 7 7 8 9 8 8 9 8 8 7 4 6 7 8 8 8 9 11 13 14 15 16 17 18 18 18 19 19 19 19 19 21 25 29 29 30 30 30 30 30 30 31 30 29 29 29 27 26 24 25 28 30 31 32 32 33 33 33 32 31 30 30 29 29 28 28 27 26 25 25 24 24 23 24 24 24 23 22
1 2 1 2 2 4 5 5 5 6 8 6 7 11 9 9 9 4 3 5 5 7 9 9 11 11 8 8 8 4 6 7 7 8 8 8 10 13 15 15 16 17 17 17 18 18 18 18 19 20 22 26 29 29 29 30 31 31 30 31 32 31 30 30 28 26 26 27 28 30 31 32 33 33 33 34 34 33 31 31 30 29 29 28 28 27 26 26 25 25 24 24 24 25 25 23 22
2 3 2 1 2 3 4 5 4 5 7 6 7 8 9 9 9 9 10 9 7 7 8 9 10 10 9 8 6 4 5 6 7 7 7 7 9 12 14 15 16 17 17 17 17 18 19 19 19 20 21 24 28 28 28 29 31 31 31 31 32 32 31 31 29 26 26 28 30 31 32 33 34 34 34 34 34 34 33 32 31 31 30 30 29 28 27 26 26 25 25 25 25 25 25 23 22
5 5 6 5 2 0 2 3 3 3 5 6 7 8 9 5 3 6 7 6 7 7 6 7 7 9 9 4 1 4 5 5 6 7 7 7 8 11 12 14 14 16 17 17 18 19 19 19 20 21 21 22 26 30 30 30 31 32 32 32 33 33 32 32 30 28 28 29 30 32 33 34 35 35 35 35 35 35 34 33 32 32 31 30 30 29 28 27 26 26 25 26 26 26 25 24 23
7 8 9 9 7 4 4 5 3 1 4 6 5 9 11 3 2 2 4 3 4 4 4 6 6 7 6 1 4 3 4 5 5 6 7 8 9 11 12 13 14 16 18 19 19 20 20 20 20 21 23 23 26 31 33 32 32 32 32 33 33 33 33 32 31 30 30 29 30 32 34 35 36 36 36 37 37 36 36 35 34 33 32 31 30 30 29 28 28 27 26 27 27 27 26 25 24
Wind_Direction
298 283 262 244 237 253 241 234 233 165 234 105 106 142 99 71 108 136 136 133 136 90 51 68 59 15 341 340 348 5 25 13 11 10 59 104 132 132 122 131 144 148 146 149 145 144 140 132 130 125 133 150 145 131 128 125 123 120 115 115 111 103 101 98 90 85 84 80 75 70 66 65 65 67 71 69 68 71 73 74 76 80 81 82 81 82 84 85 88 89 86 79 76 75 74 75 75
291 289 263 240 234 252 248 226 248 150 169 120 99 75 103 134 164 136 121 99 77 92 96 87 90 74 358 329 311 315 52 48 52 59 83 122 129 123 123 130 144 147 143 147 147 145 141 136 132 126 139 155 148 136 131 131 130 125 119 114 110 106 104 101 94 88 86 83 77 70 65 64 64 66 70 71 71 73 76 77 78 80 81 81 82 84 87 87 87 87 83 80 81 79 76 76 76
272 265 242 233 226 238 240 229 251 179 157 112 101 95 131 159 135 99 86 84 82 103 108 99 115 82 296 247 284 329 65 71 78 80 106 135 129 118 124 131 145 145 139 144 148 147 145 144 136 128 143 156 148 139 135 135 133 125 118 113 112 110 107 103 97 91 88 84 78 71 66 63 63 63 67 71 72 75 78 79 80 80 81 82 84 87 89 90 87 84 83 83 86 83 78 78 77
248 240 239 251 232 221 245 242 286 272 115 103 117 122 156 135 109 97 90 96 94 111 115 131 139 62 300 324 24 7 77 81 74 67 107 118 104 116 126 136 145 142 139 143 146 147 149 150 141 133 142 155 150 141 138 135 130 124 120 119 119 113 110 107 99 94 90 86 79 73 67 65 63 62 67 70 71 77 81 82 82 82 83 84 85 88 90 94 95 92 90 89 89 84 81 80 79
217 250 252 263 261 242 283 267 294 321 67 61 117 133 148 114 114 113 108 110 106 110 98 200 134 89 286 3 353 352 71 92 92 59 82 91 89 119 131 139 146 144 141 143 144 144 151 153 145 139 141 153 155 148 143 136 134 130 128 128 123 117 114 110 103 97 93 90 82 75 68 65 65 65 71 72 74 80 83 84 84 85 85 87 87 90 95 98 97 95 95 94 89 84 83 83 84
262 241 235 249 287 342 265 200 125 71 51 1 97 130 130 119 125 122 124 121 115 99 59 279 342 128 153 89 13 25 35 54 107 61 64 91 95 119 134 140 150 146 142 145 143 142 152 154 148 146 142 146 154 156 150 141 140 137 136 134 126 121 119 113 105 99 96 92 82 75 68 65 66 69 74 76 79 83 86 86 86 87 87 90 89 89 95 97 96 95 95 94 88 85 86 87 87
279 225 192 212 160 258 256 98 73 86 62 2 74 128 132 125 127 132 142 139 144 173 195 278 303 229 125 118 118 65 45 25 70 58 58 89 97 113 135 143 150 145 142 146 140 142 156 156 154 151 144 144 149 158 157 147 141 143 142 135 129 124 122 117 108 102 97 91 82 75 69 66 68 71 76 79 81 85 88 88 88 89 88 93 92 86 90 93 96 98 98 94 90 90 88 88 88
276 255 198 233 189 231 263 87 67 53 78 50 62 102 121 131 137 146 153 152 155 158 184 196 250 253 114 148 144 95 77 57 66 73 74 85 94 109 131 147 151 144 142 147 143 150 161 160 159 157 152 148 146 153 159 155 146 147 148 138 132 128 127 122 113 107 100 94 85 78 72 68 69 72 76 79 81 84 87 89 90 90 89 94 93 89 91 92 96 99 99 97 95 94 90 86 84
251 258 218 252 230 187 141 100 95 72 102 121 95 86 108 136 153 157 156 149 138 151 162 157 225 287 132 159 98 115 120 79 83 94 89 86 97 118 134 154 153 146 145 151 150 151 160 162 164 166 162 150 144 149 154 160 160 156 153 145 136 133 132 126 120 112 105 99 91 84 77 73 73 74 78 81 82 84 86 88 90 91 91 92 91 92 92 92 96 100 101 100 98 94 89 86 85
221 239 245 253 232 181 151 119 112 108 116 124 124 129 134 145 162 169 164 147 143 163 120 108 224 286 159 151 109 122 114 103 109 98 97 97 110 127 131 143 145 152 154 151 147 148 158 165 169 173 171 158 150 152 152 160 170 173 162 151 145 140 134 128 125 118 111 104 96 90 83 79 78 78 81 86 87 89 89 89 90 92 92 93 94 93 93 92 95 102 105 102 99 94 91 92 91
211 187 263 251 210 196 139 118 115 120 126 135 136 140 151 155 167 172 171 143 149 170 123 163 219 196 206 141 102 105 109 124 121 105 114 119 123 131 136 129 126 150 160 153 148 152 160 169 175 178 177 170 164 162 157 161 169 179 174 160 153 147 140 135 132 124 118 110 103 97 91 86 83 83 84 89 93 95 95 92 92 94 95 96 96 97 97 95 97 105 108 104 101 99 98 98 97
229 178 220 243 220 54 65 103 123 125 134 158 158 147 158 162 172 174 181 163 161 185 160 184 240 2 212 151 102 120 133 139 119 117 125 128 132 136 143 134 123 130 148 152 151 154 151 161 173 181 185 179 175 173 165 162 167 178 181 171 161 156 147 143 141 133 125 119 113 105 98 92 89 89 89 94 98 102 104 101 98 98 99 99 99 103 104 101 105 110 107 104 101 100 100 100 99
256 192 224 244 13 18 80 101 121 137 156 171 159 147 161 172 185 182 178 175 172 185 158 153 63 288 229 110 112 137 145 138 121 126 127 135 144 141 143 144 136 125 131 135 148 158 154 158 162 178 190 185 183 182 175 169 168 175 182 179 171 163 154 149 147 141 132 127 121 111 103 97 95 95 94 97 100 107 111 109 106 104 103 102 101 103 106 107 110 108 103 101 98 97 98 99 100
305 218 261 258 77 267 126 99 135 185 169 144 137 141 166 179 190 200 184 184 170 150 98 90 345 259 218 126 150 155 146 137 128 133 136 143 151 145 147 153 141 144 154 134 147 157 158 165 161 169 178 183 191 189 183 178 173 172 176 182 180 171 160 155 152 148 142 134 128 118 107 99 98 98 97 98 101 108 114 115 113 111 110 108 106 106 108 107 105 103 101 100 98 98 99 101 103
326 264 273 236 174 209 162 117 159 225 144 130 139 146 168 171 132 225 214 196 123 75 83 121 300 275 304 151 133 122 135 136 135 140 144 147 146 141 148 163 149 163 178 156 163 164 170 179 170 171 163 173 189 193 191 184 184 178 173 180 183 180 168 160 160 159 151 142 136 126 113 101 98 97 98 99 101 107 113 117 118 116 116 113 110 108 106 104 102 102 101 101 100 101 102 104 107
322 276 240 217 205 207 176 170 157 224 125 127 142 149 170 159 155 219 33 354 89 103 176 164 175 300 1 43 92 107 128 135 139 143 150 151 144 140 151 171 164 169 178 158 171 179 184 188 176 171 160 164 182 190 193 190 193 187 179 182 184 187 177 168 170 168 159 151 145 137 126 109 100 98 98 99 102 106 112 115 117 116 115 112 110 107 105 104 103 102 102 102 102 103 104 107 110
294 245 233 221 203 196 164 169 163 142 107 125 146 160 180 158 156 209 75 289 217 141 205 154 131 329 34 86 110 121 133 136 143 148 157 164 160 155 163 182 185 186 188 172 179 184 182 179 171 174 172 175 187 193 195 197 199 195 190 187 187 189 183 176 176 173 164 160 158 152 143 125 114 111 106 103 106 109 112 114 117 117 115 113 111 110 109 108 107 106 106 105 105 106 106 108 109
243 217 230 234 188 163 143 164 139 46 125 144 157 175 195 167 158 164 155 215 211 180 200 180 161 146 101 108 123 134 144 146 153 161 167 175 178 177 175 187 196 191 193 193 191 190 186 182 179 180 188 190 193 208 209 204 200 199 197 191 192 194 191 185 180 178 173 170 171 164 151 137 128 129 125 118 118 117 117 118 120 119 117 116 114 113 112 111 111 110 111 111 111 111 109 107 104
244 235 235 247 86 77 41 90 90 18 108 143 157 180 198 176 154 163 202 206 194 213 208 193 205 181 142 136 144 147 155 162 165 174 181 183 185 189 185 191 200 190 189 194 188 192 199 200 191 176 188 200 197 215 222 212 204 202 197 194 195 197 197 193 188 184 180 180 178 168 160 149 140 141 142 134 127 124 125 124 123 121 118 118 117 116 115 115 115 114 114 113 111 109 109 107 104
244 261 242 89 76 82 53 57 77 31 15 144 156 171 189 164 137 163 216 221 200 225 221 196 208 201 176 160 159 160 165 174 179 183 191 195 192 194 192 195 202 193 189 191 185 195 202 202 197 189 199 211 202 209 224 214 210 208 204 199 192 195 197 195 195 187 184 189 183 177 171 158 152 152 149 143 135 130 131 128 124 121 120 120 119 118 117 116 116 117 116 114 112 114 114 111 111
182 257 287 57 66 98 81 64 64 37 346 157 144 160 188 152 144 185 216 232 218 230 228 212 226 210 174 163 165 169 174 180 187 192 195 200 200 200 196 197 203 197 190 188 185 196 202 202 200 199 209 214 200 198 217 217 217 216 213 204 192 195 194 193 200 195 192 193 188 186 179 166 162 162 154 149 145 139 137 132 128 126 124 124 121 119 116 112 114 118 120 121 121 123 122 117 115
182 131 37 44 356 81 100 78 50 23 342 151 145 166 171 135 185 211 219 233 224 252 222 180 303 84 148 161 167 171 180 185 189 196 199 200 201 203 198 194 195 183 181 188 196 196 201 206 203 200 203 210 206 198 208 224 227 223 218 209 201 202 196 192 199 203 203 197 193 193 184 173 167 166 160 155 153 149 145 139 136 136 132 128 125 121 117 113 117 121 123 122 121 121 121 118 115
260 129 88 44 10 72 109 91 52 353 331 164 159 145 133 167 213 212 224 238 238 63 59 71 70 75 135 158 166 175 186 189 193 197 200 202 200 201 197 193 190 181 184 195 203 199 200 207 211 212 207 211 218 209 208 226 235 228 216 207 206 208 202 197 198 202 206 204 200 196 187 178 175 173 168 161 159 157 152 149 149 147 140 135 136 134 127 123 123 123 122 119 119 118 117 115 113
282 121 108 65 43 74 86 83 85 355 351 111 68 111 175 212 222 181 227 243 247 112 92 83 93 105 146 162 171 185 190 192 197 198 200 204 203 202 200 198 199 194 194 199 201 203 208 212 218 222 221 223 226 219 216 223 234 232 215 207 210 213 209 205 204 201 203 207 202 200 199 190 187 183 174 168 166 165 160 158 160 156 147 143 147 145 136 132 129 125 122 120 119 117 115 114 112
276 115 115 98 76 85 88 99 113 77 24 48 88 211 204 222 295 287 248 245 241 185 129 126 131 138 175 186 187 190 194 195 196 196 198 202 203 203 204 202 199 195 196 200 203 208 212 218 226 230 232 231 230 228 225 223 228 236 224 216 219 218 213 212 209 202 203 209 205 207 209 203 199 189 181 178 177 175 168 163 163 159 157 154 152 149 145 139 131 126 124 121 120 118 116 115 114
91 118 123 119 106 101 116 130 121 120 121 111 218 217 184 91 332 271 251 241 177 144 158 175 181 192 202 202 202 196 195 197 193 192 191 191 193 196 200 200 200 202 203 205 210 214 218 226 232 233 233 232 230 229 228 225 224 231 231 224 224 220 214 211 208 203 205 210 209 211 211 211 206 191 185 185 183 181 172 166 167 169 170 166 160 156 152 144 134 130 127 124 122 120 117 116 115
107 119 113 111 117 120 150 150 128 137 112 154 250 244 181 137 254 252 231 121 122 158 200 197 199 214 214 209 209 204 201 199 192 188 186 187 192 196 200 202 207 209 205 206 209 214 220 228 233 236 235 234 232 227 226 225 220 224 230 225 223 221 217 210 200 197 201 204 209 212 210 209 202 189 190 190 186 182 177 175 176 176 175 169 166 163 153 143 137 134 130 128 126 122 119 118 116
125 127 117 113 128 134 165 163 140 181 138 167 278 278 239 156 221 241 154 108 150 182 199 196 210 219 215 211 205 202 206 201 191 189 193 194 194 197 199 199 202 202 201 205 205 206 214 225 232 234 234 237 237 230 224 222 217 222 229 226 223 222 219 213 207 201 201 205 210 210 205 203 200 196 197 195 190 186 185 186 181 178 176 171 168 163 153 144 140 138 134 132 128 124 121 118 116
131 159 148 137 171 169 174 162 135 229 173 99 292 278 246 202 224 234 157 136 154 188 221 205 209 215 212 211 203 202 204 196 191 196 201 199 196 196 197 197 195 195 199 200 201 207 211 218 220 226 231 232 235 228 219 219 214 221 228 225 227 224 219 220 220 213 207 212 215 210 207 208 210 207 199 196 194 190 191 190 183 179 177 173 168 163 155 148 144 140 136 132 129 126 121 116 114
147 207 224 152 199 193 169 150 143 222 152 98 264 276 253 206 213 198 131 152 171 210 238 226 218 214 211 208 204 209 202 197 198 201 202 199 197 195 195 195 191 192 193 192 199 207 211 217 215 226 233 225 220 214 207 211 212 219 227 221 223 222 216 216 218 218 220 225 223 212 211 211 208 204 199 197 196 194 193 188 182 177 174 170 165 161 157 151 146 141 137 133 129 126 120 116 113
159 174 238 198 220 163 143 145 172 203 154 155 231 262 280 229 169 135 129 173 194 230 241 237 231 216 212 208 208 213 203 202 204 202 201 196 193 191 192 191 189 191 189 189 198 199 206 218 216 219 228 215 208 208 200 199 207 214 221 223 226 224 219 217 219 228 233 232 228 215 207 201 194 196 199 198 198 195 190 184 179 175 171 168 164 161 159 153 147 142 139 136 132 127 122 117 112
168 180 202 204 230 144 130 128 178 210 137 178 209 250 267 263 125 120 152 182 197 235 247 246 240 227 222 211 210 217 207 204 204 204 201 195 192 189 191 191 190 193 194 191 193 191 197 214 213 207 214 209 210 210 200 196 199 208 220 230 233 230 227 226 227 233 233 228 225 214 202 193 190 195 198 197 197 192 187 182 177 174 170 168 165 162 159 155 149 144 141 138 134 128 123 117 111
186 230 218 179 215 186 144 124 166 242 117 189 216 255 274 252 121 125 162 190 198 227 247 250 243 234 229 220 215 215 208 201 201 203 199 195 195 193 192 193 192 193 195 193 191 190 190 199 205 202 205 207 209 209 202 200 201 212 226 231 230 227 226 226 222 222 221 217 213 206 197 193 196 197 192 193 193 188 185 181 174 170 169 169 167 162 159 156 151 144 139 137 134 130 124 117 111
186 217 241 194 218 227 181 132 126 205 230 219 220 239 260 265 259 192 178 186 201 232 251 254 255 244 231 224 218 214 211 207 204 202 197 194 193 193 192 192 192 191 193 192 188 188 186 190 197 197 200 201 204 205 202 203 208 216 223 221 215 213 214 214 210 206 208 207 202 198 192 192 194 190 185 187 187 183 181 178 171 167 168 167 165 163 160 155 148 143 139 136 135 131 124 119 115
199 194 224 220 212 238 250 135 126 196 227 240 238 240 252 259 264 258 230 207 213 239 254 256 257 252 242 230 221 216 212 214 213 199 192 191 190 190 189 189 190 188 190 190 185 184 181 185 192 192 195 193 195 200 202 205 208 212 214 207 200 202 206 208 205 201 202 202 200 196 189 185 182 178 177 178 178 177 175 175 171 168 168 167 165 163 159 152 147 144 139 134 131 129 127 126 123
342 216 251 260 230 231 184 96 93 252 246 246 248 253 261 260 260 264 258 239 232 242 252 254 252 249 245 237 229 218 213 218 212 191 184 185 186 186 186 186 187 186 188 186 183 183 181 182 190 193 192 191 194 198 200 201 201 204 205 202 200 206 212 210 208 204 199 198 197 191 182 176 173 171 173 174 175 175 172 171 171 170 169 168 167 164 160 155 150 146 141 138 135 132 131 132 128
337 320 280 263 271 253 106 95 93 21 278 260 254 261 269 271 267 266 266 261 255 249 247 248 245 240 238 236 233 222 215 206 174 168 172 177 182 184 185 185 185 186 188 185 184 184 183 185 191 196 193 193 197 197 197 197 198 199 198 198 202 207 209 207 205 201 194 191 188 184 178 172 172 173 174 175 173 173 171 169 170 170 170 171 170 166 162 159 155 152 149 146 143 137 134 135 131
271 267 272 248 253 249 99 93 121 121 277 269 274 276 272 274 273 269 264 257 254 251 249 251 249 243 237 234 234 227 210 161 144 158 166 173 181 183 184 186 186 187 187 186 186 186 186 190 194 198 196 195 197 198 199 201 202 201 198 199 203 205 204 199 196 193 190 187 181 179 177 173 175 176 177 177 171 170 172 170 170 171 172 173 169 166 164 161 160 161 157 150 145 142 141 142 138
236 246 266 260 271 281 104 96 115 168 244 281 297 293 278 276 274 267 260 252 249 250 251 256 258 254 247 238 237 231 205 168 162 172 171 176 183 184 186 188 190 190 187 186 186 186 187 192 197 200 199 197 199 200 200 202 204 202 200 201 202 200 198 193 190 186 186 186 181 179 177 175 178 179 180 179 173 173 175 173 172 172 173 172 168 167 167 167 167 166 161 153 147 145 147 154 156
226 236 250 248 355 320 231 106 133 200 230 299 300 289 275 271 267 261 258 253 252 252 251 255 257 256 255 251 248 238 217 189 180 180 176 180 184 186 189 189 190 190 187 186 185 185 188 194 198 199 200 199 202 204 201 202 205 203 202 202 198 195 193 191 189 184 184 185 182 182 180 178 181 183 184 184 180 178 177 175 174 174 173 173 174 176 174 173 172 168 164 160 156 154 157 166 168
218 220 239 259 324 293 265 357 318 240 204 290 292 285 269 252 248 254 254 250 253 245 243 250 249 247 253 255 247 236 227 215 199 186 178 180 184 188 191 189 189 188 188 187 184 184 189 195 198 199 201 200 203 207 205 204 203 200 198 193 189 189 188 188 188 184 183 184 184 184 183 182 185 188 188 188 186 182 179 177 176 177 178 176 179 182 179 176 174 170 169 169 167 164 165 170 170
222 208 228 254 311 338 295 338 329 279 226 169 314 304 285 205 232 245 190 178 224 215 225 245 247 239 235 235 232 227 227 228 221 200 180 179 183 186 189 189 189 189 189 186 182 185 190 194 197 200 203 201 203 207 207 206 203 199 194 187 182 182 182 187 188 186 184 184 186 186 187 187 189 190 189 189 187 184 183 180 177 179 182 181 180 181 179 177 175 175 177 176 173 171 170 171 174
241 216 255 247 267 336 299 315 309 290 292 169 78 295 286 274 251 242 221 215 234 231 239 251 254 243 221 212 220 222 220 215 218 211 187 178 180 183 186 189 188 188 188 182 180 186 192 194 196 201 204 203 204 207 207 207 204 201 198 195 192 190 189 192 192 189 186 187 188 189 190 191 191 190 189 189 188 186 185 184 182 182 183 183 180 179 180 179 178 180 181 178 175 179 178 174 178
246 17 348 206 196 228 256 293 268 289 319 293 177 222 273 280 258 233 221 222 240 246 248 254 257 247 201 192 205 203 201 194 197 207 196 181 180 183 185 186 186 186 184 179 179 187 194 198 199 199 201 204 208 209 209 208 206 203 201 198 196 195 196 196 194 192 190 190 191 191 193 194 192 189 188 189 189 187 186 186 187 185 183 182 181 181 181 181 182 182 179 178 180 185 183 180 182
33 41 22 91 112 173 187 275 276 296 317 288 182 174 264 281 274 167 193 199 212 233 244 252 251 152 139 167 141 121 139 172 186 197 194 182 181 184 185 184 183 184 183 179 179 186 195 200 200 196 199 206 211 211 210 209 206 204 201 197 196 197 198 197 193 192 192 192 192 193 194 194 191 190 188 189 190 188 188 189 189 187 186 184 183 184 184 184 186 185 181 182 184 182 181 187 188
134 132 88 88 98 83 128 266 291 295 282 268 184 167 259 290 264 149 163 191 205 224 235 238 139 104 107 108 108 118 135 149 171 182 180 178 180 181 182 180 180 182 182 179 179 186 196 200 200 199 203 208 211 212 212 208 204 203 202 201 201 200 199 196 191 190 190 191 192 193 194 193 191 191 190 190 192 191 191 192 191 189 188 187 186 187 188 188 189 187 185 185 183 179 181 187 186
141 145 115 108 143 130 206 245 294 274 262 267 177 172 206 291 272 151 163 201 203 206 198 166 110 102 109 105 117 139 135 132 149 156 160 166 169 175 179 180 180 180 180 179 181 189 197 201 202 201 205 209 211 212 212 209 207 206 208 208 205 201 201 196 190 189 190 191 192 193 193 192 192 193 192 192 195 195 194 193 192 190 189 189 190 190 190 190 190 189 189 189 187 187 190 189 182
154 163 162 181 200 181 213 202 176 245 247 295 10 287 215 252 249 134 143 217 207 195 161 152 120 99 117 127 133 132 124 132 146 150 154 160 165 173 179 182 182 182 183 182 184 193 200 203 202 199 202 208 211 213 213 212 210 210 210 207 203 204 203 198 194 193 192 192 192 191 190 191 192 194 194 194 197 197 195 193 192 191 190 190 191 191 191 191 192 192 193 194 194 196 199 195 186
203 194 180 210 226 205 225 209 191 236 232 104 22 344 245 246 253 238 239 244 220 216 205 208 260 244 164 153 152 144 139 146 153 163 167 169 175 178 181 186 186 186 188 185 187 195 202 206 204 199 202 207 210 214 214 213 211 211 210 206 203 206 205 201 198 196 195 194 192 191 190 191 192 194 195 196 197 197 195 193 192 191 191 192 193 193 193 193 193 194 196 197 198 199 197 193 188
199 196 186 203 215 222 233 219 222 247 202 74 63 130 250 263 274 256 243 236 222 224 241 249 260 258 225 171 162 153 152 161 165 174 177 178 183 183 184 188 188 191 192 187 188 197 203 209 207 201 202 207 209 213 214 212 212 212 211 209 206 207 208 205 201 198 196 194 193 194 193 193 194 195 196 198 198 197 195 193 192 192 193 193 194 195 195 195 195 196 198 198 197 195 192 191 188
199 206 203 214 221 238 245 233 255 269 124 116 157 192 239 261 351 304 255 262 240 256 252 246 259 260 241 203 185 170 169 174 170 177 185 186 185 185 187 191 191 193 193 190 190 197 205 210 207 200 201 206 209 212 213 212 213 213 213 211 210 211 213 210 204 200 196 193 194 196 196 195 196 196 197 199 199 197 196 194 193 194 194 195 196 197 196 196 196 197 197 195 193 192 192 191 187
193 197 219 233 238 252 266 301 353 6 353 220 201 241 249 267 300 278 250 237 223 212 213 224 247 254 245 238 220 194 184 180 172 179 188 186 186 187 188 191 193 193 193 194 193 197 205 210 207 202 202 207 210 211 213 212 213 214 213 212 213 215 216 211 205 200 196 194 196 198 198 197 198 197 198 200 199 198 197 196 195 195 196 197 197 198 197 196 196 195 193 191 191 191 191 188 184
168 175 206 217 7 321 245 219 90 86 273 250 209 248 269 287 289 265 232 234 233 214 202 202 225 239 237 242 237 202 181 174 171 178 187 187 186 188 190 191 192 193 193 195 195 197 203 209 209 204 201 206 210 211 212 212 213 214 212 212 215 217 217 213 207 203 198 197 198 199 199 199 199 199 199 199 199 198 198 197 196 196 196 197 197 196 196 194 192 191 190 189 189 187 185 182 179
155 186 188 124 48 328 239 246 238 213 249 256 218 242 266 272 273 261 162 209 224 210 209 210 221 229 227 238 246 204 159 160 170 180 188 188 185 187 191 192 193 194 194 195 195 198 202 207 211 206 200 206 211 211 213 213 213 214 212 213 216 218 218 213 207 205 202 200 201 201 201 201 201 201 200 199 199 198 197 197 197 196 194 194 193 192 191 190 188 188 188 187 186 183 181 179 178
358 285 193 134 222 217 200 221 245 239 243 257 243 248 259 245 246 263 206 211 208 191 198 211 225 230 226 234 239 193 141 152 173 187 191 186 187 190 190 191 194 194 194 194 194 197 201 204 210 210 207 210 213 213 213 214 215 215 214 216 218 219 219 213 206 206 205 205 205 204 203 203 203 203 201 199 199 198 197 196 195 194 192 190 190 189 188 188 188 188 186 186 184 183 182 179 178
359 303 240 220 263 240 214 207 227 246 242 254 264 260 257 245 248 260 251 242 234 212 203 210 222 232 236 239 235 173 143 165 179 187 194 188 189 192 191 191 192 191 192 192 192 196 200 201 205 209 208 210 213 213 212 212 215 215 215 217 219 219 219 215 208 207 208 209 208 207 206 205 205 204 201 199 199 198 197 196 194 192 191 189 189 187 187 188 189 188 187 186 184 183 184 182 180
187 216 208 196 187 265 283 239 225 248 246 250 263 264 263 260 249 254 253 244 228 216 212 214 219 235 238 229 149 118 138 177 186 180 181 184 190 193 194 193 190 190 191 190 192 195 198 199 202 206 206 204 208 212 212 212 214 216 216 217 219 220 220 217 211 208 211 212 210 209 208 207 207 205 201 199 199 198 197 196 194 192 191 190 189 188 188 189 188 187 188 189 187 185 186 184 182
192 203 204 203 190 177 222 226 200 210 249 249 258 267 268 262 106 243 251 229 210 192 204 224 232 242 239 138 93 124 154 172 194 199 178 170 182 186 189 192 190 193 194 191 192 194 197 200 200 204 206 203 205 210 213 214 215 216 216 218 220 221 220 216 211 210 212 212 211 210 210 209 207 204 201 200 199 198 198 197 195 193 192 191 191 191 190 190 189 190 191 191 191 189 188 187 186